星链-5673 (STARLINK-5673 )

导读

STARLINK-5673是美国太空探索技术公司星链互联网卫星星座的一员,由美国在2023年2月2日发射,属于星链计划组网批次卫星。星链系统旨在为全球提供低延迟、高速率的卫星互联网服务,该卫星入轨后参与星座组网,服务全球多地的卫星互联网接入需求。

Basic Information
目录编号:
55462
目录名称:
STARLINK-5673
国际标识:
2023-015P
轨道中心:
EARTH
卫星名称:
星链-5673
卫星全名:
星链-5673 (STARLINK-5673 )
卫星状态:
在轨 (已飞行1310 天)
发射日期:
2023-02-02 UTC
国别 :
美国 (US)
星等 :
--
Orbit Information
数据来源 国际轨道数据
星历时间: 2026-09-04T03:07:05+0800
1天前
查看轨道信息
半长轴: 6861.211km
偏心率: 0.0001124
轨道倾角: 43.003°
近地点辐角 260.516°
升交点赤经 42.657°
平近点角 99.556°
近地点: 482.302km
远地点: 483.846km
周期: 94.267分钟
每日圈数: 15.27572
Detailed Information
固有亮度:
5
最大亮度:
2.5
卫星平台:
Starlink v1.5
覆盖范围:
全球
运营商:
太空探索技术公司
运营商所在国:
美国
制造商(研发单位):
太空探索技术公司
制造商所在国:
美国
使用方式:
暂无
Satellite Introduction
星链(Starlink)计划是由太空探索技术公司(SpaceX)提出的一个巨型低轨卫星互联网星座项目,计划在2019年至2024年间在太空搭建由约1.2万颗卫星组成的“星链”网络,其中1584颗将部署在地球上空550千米处的近地轨道,并从2020年开始工作。该卫星仍在工作。
2D Orbit Map
3D Orbit Map
Orbit Altitude Analysis Chart
Orbit Inclination Analysis Chart
Orbit Comprehensive Analysis Chart
View Comprehensive Chart
Conjunction Data List
Event ID Objects TCA Miss Dist (km) Collision Risk Probability Collision Risk Index (CRI) Action
CDM_260906-030705-546206-220121
2026-09-06T
03:07:22+0000
0.584 km
远距离
7.134194E-5 中风险 0.72
CDM_260906-145305-546206-220121
2026-09-06T
14:53:33+0000
1.088 km
极远距离
9.554782E-6 低风险 0.55
CDM_260906-131905-546206-220121
2026-09-06T
13:19:24+0000
1.090 km
极远距离
9.485524E-6 低风险 0.55
CDM_260906-044105-546206-220121
2026-09-06T
04:41:31+0000
1.112 km
极远距离
8.85605E-6 低风险 0.54
CDM_260906-231303-825705-546221
2026-09-06T
23:13:57+0000
1.675 km
极远距离
2.877766E-6 低风险 0.44
CDM_260905-010705-546206-309521
2026-09-05T
01:07:30+0000
2.070 km
极远距离
2.27648E-6 低风险 0.42
CDM_260906-013305-546206-220121
2026-09-06T
01:33:12+0000
2.171 km
极远距离
1.226329E-6 低风险 0.37
CDM_260906-114505-546206-220121
2026-09-06T
11:45:14+0000
2.713 km
极远距离
8.338643E-7 极低风险 0.33
CDM_260906-162705-546206-220121
2026-09-06T
16:27:43+0000
2.753 km
极远距离
8.174865E-7 极低风险 0.33
CDM_260906-061505-546206-220121
2026-09-06T
06:15:41+0000
2.760 km
极远距离
8.141507E-7 极低风险 0.33